When you browse on this site, cookies collect data to enhance your experience and personalize the content and advertising you see.
Visit our Privacy Policy to learn more. By continuing to use the site, you agree to this use of cookies and data.
  • In Österreich
  • Länderverzeichnis
  • Für 7 Tage
  • Wassertemperatur
  • Wetterkarte
  • News
  • Widgets
  • user-avatar
    Anmelden

    Stündliche Wetter Tasquillo

    Heute, 18 Januar, Samstag

    Zeit Temperatur Niederschläge Wind Luftdruck Luftfeuchtigkeit
    00:00 +16°C° 0.1 mm 1 m/S 627 mmHg 89%
    01:00 +16°C° 0.1 mm 1 m/S 627 mmHg 90%
    02:00 +16°C° 0.1 mm 1 m/S 627 mmHg 90%
    03:00 +16°C° 0.1 mm 1 m/S 627 mmHg 91%
    04:00 +16°C° 0.1 mm 1 m/S 627 mmHg 91%
    05:00 +14°C° 0 mm 0 m/S 627 mmHg 92%
    06:00 +15°C° 0 mm 0 m/S 627 mmHg 89%
    07:00 +15°C° 0 mm 0 m/S 627 mmHg 86%
    08:00 +16°C° 0 mm 1 m/S 628 mmHg 84%
    09:00 +19°C° 0 mm 1 m/S 628 mmHg 78%
    10:00 +20°C° 0 mm 1 m/S 628 mmHg 71%
    11:00 +20°C° 0 mm 2 m/S 629 mmHg 65%
    12:00 +21°C° 0 mm 2 m/S 628 mmHg 62%
    13:00 +21°C° 0 mm 3 m/S 628 mmHg 60%
    14:00 +22°C° 0 mm 4 m/S 627 mmHg 57%
    15:00 +21°C° 0 mm 3 m/S 627 mmHg 62%
    16:00 +20°C° 0 mm 3 m/S 627 mmHg 67%
    17:00 +19°C° 0 mm 3 m/S 627 mmHg 72%
    18:00 +18°C° 0.6 mm 3 m/S 627 mmHg 78%
    19:00 +18°C° 0.6 mm 2 m/S 627 mmHg 84%
    20:00 +17°C° 0.6 mm 2 m/S 628 mmHg 89%
    21:00 +17°C° 0.1 mm 2 m/S 628 mmHg 90%
    22:00 +16°C° 0.1 mm 2 m/S 627 mmHg 90%
    23:00 +16°C° 0.1 mm 2 m/S 627 mmHg 91%

    Morgen, 19 Januar, Sonntag

    Zeit Temperatur Niederschläge Wind Luftdruck Luftfeuchtigkeit
    00:00 +16°C° 0 mm 2 m/S 627 mmHg 91%
    01:00 +16°C° 0 mm 2 m/S 627 mmHg 90%
    02:00 +16°C° 0 mm 2 m/S 627 mmHg 90%
    03:00 +16°C° 0.1 mm 2 m/S 627 mmHg 90%
    04:00 +16°C° 0.1 mm 2 m/S 627 mmHg 90%
    05:00 +16°C° 0.1 mm 2 m/S 627 mmHg 90%
    06:00 +16°C° 0.4 mm 2 m/S 628 mmHg 89%
    07:00 +16°C° 0.4 mm 2 m/S 628 mmHg 89%
    08:00 +16°C° 0.4 mm 2 m/S 629 mmHg 89%
    09:00 +16°C° 0.3 mm 2 m/S 629 mmHg 87%
    10:00 +16°C° 0.3 mm 2 m/S 629 mmHg 86%
    11:00 +16°C° 0.3 mm 3 m/S 629 mmHg 85%
    12:00 +16°C° 0.2 mm 3 m/S 628 mmHg 84%
    13:00 +16°C° 0.2 mm 3 m/S 628 mmHg 83%
    14:00 +15°C° 0.2 mm 4 m/S 627 mmHg 82%
    15:00 +16°C° 0.2 mm 3 m/S 628 mmHg 83%
    16:00 +14°C° 0.2 mm 3 m/S 628 mmHg 85%
    17:00 +14°C° 0.2 mm 3 m/S 628 mmHg 87%
    18:00 +14°C° 0.7 mm 2 m/S 628 mmHg 88%
    19:00 +14°C° 0.7 mm 2 m/S 629 mmHg 90%
    20:00 +14°C° 0.7 mm 2 m/S 629 mmHg 91%
    21:00 +14°C° 0.5 mm 1 m/S 630 mmHg 91%
    22:00 +14°C° 0.5 mm 1 m/S 630 mmHg 92%
    23:00 +14°C° 0.5 mm 1 m/S 630 mmHg 92%

    übermorgen, 20 Januar, Montag

    Zeit Temperatur Niederschläge Wind Luftdruck Luftfeuchtigkeit
    00:00 +14°C° 0.4 mm 1 m/S 630 mmHg 92%
    01:00 +13°C° 0.4 mm 1 m/S 629 mmHg 93%
    02:00 +13°C° 0.4 mm 1 m/S 629 mmHg 93%
    03:00 +13°C° 0.2 mm 1 m/S 629 mmHg 93%
    04:00 +13°C° 0.2 mm 1 m/S 629 mmHg 92%
    05:00 +13°C° 0.2 mm 1 m/S 629 mmHg 92%
    06:00 +13°C° 0.1 mm 2 m/S 630 mmHg 92%
    07:00 +13°C° 0.1 mm 2 m/S 630 mmHg 91%
    08:00 +13°C° 0.1 mm 2 m/S 631 mmHg 90%
    09:00 +14°C° 0 mm 2 m/S 630 mmHg 89%
    10:00 +14°C° 0 mm 2 m/S 630 mmHg 87%
    11:00 +13°C° 0 mm 3 m/S 630 mmHg 85%
    12:00 +13°C° 0 mm 3 m/S 630 mmHg 82%
    13:00 +14°C° 0 mm 3 m/S 630 mmHg 79%
    14:00 +14°C° 0 mm 3 m/S 629 mmHg 75%
    15:00 +14°C° 0 mm 3 m/S 629 mmHg 78%
    16:00 +13°C° 0 mm 3 m/S 629 mmHg 81%
    17:00 +12°C° 0 mm 3 m/S 629 mmHg 85%
    18:00 +13°C° 0 mm 2 m/S 629 mmHg 87%
    19:00 +13°C° 0 mm 2 m/S 629 mmHg 89%
    20:00 +12°C° 0 mm 2 m/S 629 mmHg 90%
    21:00 +12°C° 0 mm 2 m/S 629 mmHg 89%
    22:00 +12°C° 0 mm 2 m/S 629 mmHg 88%
    23:00 +12°C° 0 mm 1 m/S 630 mmHg 87%

    21 Januar, Dienstag

    Zeit Temperatur Niederschläge Wind Luftdruck Luftfeuchtigkeit
    00:00 +12°C° 0 mm 1 m/S 629 mmHg 87%
    01:00 +12°C° 0 mm 1 m/S 629 mmHg 86%
    02:00 +12°C° 0 mm 1 m/S 628 mmHg 86%
    03:00 +12°C° 0 mm 1 m/S 628 mmHg 87%
    04:00 +12°C° 0 mm 1 m/S 628 mmHg 87%
    05:00 +12°C° 0 mm 1 m/S 628 mmHg 88%
    06:00 +13°C° 0 mm 1 m/S 628 mmHg 85%
    07:00 +13°C° 0 mm 1 m/S 628 mmHg 82%
    08:00 +14°C° 0 mm 1 m/S 629 mmHg 79%
    09:00 +15°C° 0 mm 1 m/S 629 mmHg 71%
    10:00 +18°C° 0 mm 1 m/S 629 mmHg 64%
    11:00 +20°C° 0 mm 1 m/S 629 mmHg 56%
    12:00 +21°C° 0 mm 1 m/S 629 mmHg 54%
    13:00 +20°C° 0 mm 2 m/S 628 mmHg 52%
    14:00 +21°C° 0 mm 2 m/S 628 mmHg 50%
    15:00 +20°C° 0 mm 3 m/S 627 mmHg 58%
    16:00 +18°C° 0 mm 3 m/S 626 mmHg 67%
    17:00 +17°C° 0 mm 3 m/S 625 mmHg 76%
    18:00 +16°C° 0 mm 3 m/S 626 mmHg 79%
    19:00 +15°C° 0 mm 2 m/S 626 mmHg 83%
    20:00 +14°C° 0 mm 2 m/S 626 mmHg 87%
    21:00 +14°C° 0 mm 1 m/S 626 mmHg 86%
    22:00 +14°C° 0 mm 1 m/S 626 mmHg 86%
    23:00 +13°C° 0 mm 0 m/S 626 mmHg 86%

    22 Januar, Mittwoch

    Zeit Temperatur Niederschläge Wind Luftdruck Luftfeuchtigkeit
    00:00 +13°C° 0 mm 0 m/S 625 mmHg 86%
    01:00 +14°C° 0 mm 1 m/S 625 mmHg 87%
    02:00 +14°C° 0 mm 1 m/S 625 mmHg 87%
    03:00 +14°C° 0 mm 1 m/S 624 mmHg 87%
    04:00 +13°C° 0 mm 1 m/S 624 mmHg 87%
    05:00 +13°C° 0 mm 1 m/S 624 mmHg 86%
    06:00 +15°C° 0 mm 1 m/S 625 mmHg 79%
    07:00 +16°C° 0 mm 1 m/S 625 mmHg 72%
    08:00 +19°C° 0 mm 1 m/S 626 mmHg 65%
    09:00 +19°C° 0 mm 2 m/S 626 mmHg 58%
    10:00 +21°C° 0 mm 2 m/S 626 mmHg 50%
    11:00 +24°C° 0 mm 2 m/S 627 mmHg 42%
    12:00 +25°C° 0 mm 3 m/S 626 mmHg 40%
    13:00 +26°C° 0 mm 4 m/S 625 mmHg 38%
    14:00 +26°C° 0 mm 5 m/S 625 mmHg 35%
    15:00 +25°C° 0.1 mm 5 m/S 624 mmHg 42%
    16:00 +23°C° 0.1 mm 4 m/S 624 mmHg 49%
    17:00 +21°C° 0.1 mm 4 m/S 624 mmHg 56%
    18:00 +20°C° 0.1 mm 3 m/S 624 mmHg 62%
    19:00 +19°C° 0.1 mm 2 m/S 624 mmHg 69%
    20:00 +17°C° 0.1 mm 2 m/S 624 mmHg 75%
    21:00 +18°C° 0 mm 1 m/S 624 mmHg 78%
    22:00 +16°C° 0 mm 1 m/S 624 mmHg 82%
    23:00 +15°C° 0 mm 0 m/S 624 mmHg 85%

    23 Januar, Donnerstag

    Zeit Temperatur Niederschläge Wind Luftdruck Luftfeuchtigkeit
    00:00 +15°C° 0 mm 0 m/S 623 mmHg 83%
    01:00 +14°C° 0 mm 0 m/S 623 mmHg 82%
    02:00 +14°C° 0 mm 0 m/S 623 mmHg 81%
    03:00 +14°C° 0 mm 0 m/S 623 mmHg 78%
    04:00 +15°C° 0 mm 1 m/S 623 mmHg 75%
    05:00 +16°C° 0 mm 1 m/S 623 mmHg 73%
    06:00 +16°C° 0 mm 1 m/S 624 mmHg 69%
    07:00 +16°C° 0 mm 1 m/S 624 mmHg 66%
    08:00 +18°C° 0 mm 1 m/S 625 mmHg 63%
    09:00 +18°C° 0.1 mm 1 m/S 625 mmHg 59%
    10:00 +18°C° 0.1 mm 2 m/S 625 mmHg 55%
    11:00 +18°C° 0.1 mm 3 m/S 625 mmHg 52%
    12:00 +17°C° 0 mm 5 m/S 624 mmHg 52%
    13:00 +17°C° 0 mm 6 m/S 623 mmHg 52%
    14:00 +16°C° 0 mm 8 m/S 622 mmHg 52%
    15:00 +16°C° 0 mm 6 m/S 622 mmHg 53%
    16:00 +17°C° 0 mm 4 m/S 622 mmHg 53%
    17:00 +17°C° 0 mm 2 m/S 622 mmHg 53%
    18:00 +17°C° 0 mm 2 m/S 622 mmHg 54%
    19:00 +16°C° 0 mm 1 m/S 623 mmHg 55%
    20:00 +16°C° 0 mm 1 m/S 623 mmHg 56%
    21:00 +16°C° 0 mm 1 m/S 623 mmHg 57%
    22:00 +15°C° 0 mm 1 m/S 622 mmHg 58%
    23:00 +15°C° 0 mm 1 m/S 622 mmHg 59%
    Mehr zeigen